Data No,UTC Date,UTC Time,Latitude,Longitude,Course(deg),Temp(degC),Sal(psu)
525,2023/7/18,8:44,42-36.95N,141-37.07E,209,19.676,31.3626
526,2023/7/18,8:45,42-36.71N,141-36.89E,204,19.699,31.4092
527,2023/7/18,8:46,42-36.45N,141-36.89E,169,19.735,31.4701
528,2023/7/18,8:47,42-36.22N,141-37.09E,138,19.831,31.5367
529,2023/7/18,8:48,42-36.07N,141-37.41E,119,20.087,31.5648
530,2023/7/18,8:49,42-35.94N,141-37.75E,117,20.292,31.5668
531,2023/7/18,8:50,42-35.79N,141-38.11E,121,20.592,31.5799
532,2023/7/18,8:51,42-35.60N,141-38.44E,130,20.797,31.5805
533,2023/7/18,8:52,42-35.39N,141-38.77E,131,20.678,31.5273
534,2023/7/18,8:53,42-35.18N,141-39.10E,131,20.75,31.4481
535,2023/7/18,8:54,42-34.97N,141-39.42E,131,20.541,31.4108
536,2023/7/18,8:55,42-34.75N,141-39.76E,131,20.402,31.4285
537,2023/7/18,8:56,42-34.53N,141-40.08E,132,20.008,31.4474
538,2023/7/18,8:57,42-34.30N,141-40.42E,132,19.92,31.5844
539,2023/7/18,8:58,42-34.09N,141-40.74E,132,19.68,31.6624
540,2023/7/18,8:59,42-33.86N,141-41.07E,132,19.38,31.7458
541,2023/7/18,9:00,42-33.62N,141-41.41E,133,19.198,31.8816
542,2023/7/18,9:01,42-33.38N,141-41.72E,137,19.556,31.9565
543,2023/7/18,9:02,42-33.12N,141-42.03E,137,19.308,31.9352
544,2023/7/18,9:03,42-32.86N,141-42.35E,139,19.897,31.8443
545,2023/7/18,9:04,42-32.62N,141-42.65E,137,19.524,31.8102
546,2023/7/18,9:05,42-32.36N,141-42.96E,137,19.344,31.8161
547,2023/7/18,9:06,42-32.10N,141-43.27E,138,19.239,31.8837
548,2023/7/18,9:07,42-31.83N,141-43.60E,138,18.99,31.9498
549,2023/7/18,9:08,42-31.58N,141-43.90E,138,19.169,31.986
550,2023/7/18,9:09,42-31.32N,141-44.21E,138,19.299,31.8937
551,2023/7/18,9:10,42-31.05N,141-44.54E,138,19.18,31.8529
552,2023/7/18,9:11,42-30.79N,141-44.85E,138,18.986,31.877
553,2023/7/18,9:12,42-30.52N,141-45.18E,138,18.813,31.8664
554,2023/7/18,9:13,42-30.26N,141-45.50E,138,18.849,31.8657
555,2023/7/18,9:14,42-29.99N,141-45.83E,138,18.751,31.8562
556,2023/7/18,9:15,42-29.71N,141-46.16E,138,18.589,31.8146
557,2023/7/18,9:16,42-29.46N,141-46.47E,138,18.832,31.7967
558,2023/7/18,9:17,42-29.18N,141-46.80E,138,18.477,31.7725
559,2023/7/18,9:18,42-28.91N,141-47.12E,138,18.39,31.7318
560,2023/7/18,9:19,42-28.65N,141-47.43E,138,18.454,31.7142
561,2023/7/18,9:20,42-28.38N,141-47.76E,138,18.4,31.6884
562,2023/7/18,9:21,42-28.10N,141-48.09E,138,18.32,31.6773
563,2023/7/18,9:22,42-27.82N,141-48.40E,141,18.457,31.688
564,2023/7/18,9:23,42-27.57N,141-48.69E,137,17.763,31.708
565,2023/7/18,9:24,42-27.31N,141-49.03E,136,18.075,31.7461
566,2023/7/18,9:25,42-27.04N,141-49.36E,137,18.344,31.7655
567,2023/7/18,9:26,42-26.78N,141-49.69E,137,18.345,31.7855
568,2023/7/18,9:27,42-26.50N,141-50.04E,137,18.091,31.8307
569,2023/7/18,9:28,42-26.24N,141-50.35E,138,18.229,31.8623
570,2023/7/18,9:29,42-25.96N,141-50.69E,138,18.245,31.8713
571,2023/7/18,9:30,42-25.69N,141-51.01E,138,18.836,31.8679
572,2023/7/18,9:31,42-25.41N,141-51.34E,138,18.51,31.8582
573,2023/7/18,9:32,42-25.15N,141-51.65E,138,18.978,31.8547
574,2023/7/18,9:33,42-24.87N,141-51.98E,138,18.972,31.8903
575,2023/7/18,9:34,42-24.60N,141-52.31E,137,17.93,31.9042
576,2023/7/18,9:35,42-24.34N,141-52.62E,138,17.684,31.9493
577,2023/7/18,9:36,42-24.06N,141-52.95E,139,17.142,31.9767
578,2023/7/18,9:37,42-23.85N,141-53.31E,123,17.379,31.9695
579,2023/7/18,9:38,42-23.66N,141-53.71E,121,17.158,31.8949
580,2023/7/18,9:39,42-23.47N,141-54.13E,122,17.44,31.7987
581,2023/7/18,9:40,42-23.28N,141-54.55E,122,17.391,31.7467
582,2023/7/18,9:41,42-23.09N,141-54.94E,122,17.684,31.7421
583,2023/7/18,9:42,42-22.90N,141-55.34E,123,18.185,31.749
584,2023/7/18,9:43,42-22.70N,141-55.74E,123,18.275,31.7601
585,2023/7/18,9:44,42-22.50N,141-56.15E,123,18.675,31.7809
586,2023/7/18,9:45,42-22.30N,141-56.54E,124,18.935,31.7817
587,2023/7/18,9:46,42-22.10N,141-56.95E,124,18.662,31.7906
588,2023/7/18,9:47,42-21.90N,141-57.35E,124,18.43,31.7686
589,2023/7/18,9:48,42-21.70N,141-57.75E,124,18.342,31.7315
590,2023/7/18,9:49,42-21.50N,141-58.16E,124,18.605,31.7282
591,2023/7/18,9:50,42-21.29N,141-58.56E,124,18.753,31.7316
592,2023/7/18,9:51,42-21.10N,141-58.95E,124,18.842,31.7264
593,2023/7/18,9:52,42-20.89N,141-59.35E,124,18.775,31.7405
594,2023/7/18,9:53,42-20.70N,141-59.74E,124,18.65,31.7233
595,2023/7/18,9:54,42-20.49N,142-00.14E,124,17.879,31.6972
596,2023/7/18,9:55,42-20.30N,142-00.54E,124,18.126,31.6661
597,2023/7/18,9:56,42-20.10N,142-00.94E,124,17.852,31.6517
598,2023/7/18,9:57,42-19.89N,142-01.34E,124,17.983,31.6154
599,2023/7/18,9:58,42-19.69N,142-01.75E,124,17.742,31.5867
600,2023/7/18,9:59,42-19.49N,142-02.14E,124,17.498,31.5903
601,2023/7/18,10:00,42-19.29N,142-02.54E,123,17.731,31.5827
602,2023/7/18,10:01,42-19.10N,142-02.94E,124,17.692,31.5874
603,2023/7/18,10:02,42-18.89N,142-03.34E,124,17.63,31.6085
604,2023/7/18,10:03,42-18.70N,142-03.74E,124,17.485,31.6611
605,2023/7/18,10:04,42-18.49N,142-04.15E,124,17.466,31.7075
606,2023/7/18,10:05,42-18.29N,142-04.54E,123,17.165,31.7414
607,2023/7/18,10:06,42-18.09N,142-04.94E,122,17.095,31.745
608,2023/7/18,10:07,42-17.91N,142-05.36E,119,16.79,31.7552
609,2023/7/18,10:08,42-17.73N,142-05.79E,118,17.028,31.7647
610,2023/7/18,10:09,42-17.57N,142-06.20E,118,17.461,31.7598
611,2023/7/18,10:10,42-17.40N,142-06.62E,118,18.059,31.7111
612,2023/7/18,10:11,42-17.21N,142-07.06E,118,18.4,31.6341
613,2023/7/18,10:12,42-17.05N,142-07.47E,118,17.803,31.5959
614,2023/7/18,10:13,42-16.88N,142-07.88E,118,17.655,31.6194
615,2023/7/18,10:14,42-16.70N,142-08.34E,118,18.04,31.6516
616,2023/7/18,10:15,42-16.54N,142-08.73E,118,18.227,31.6506
617,2023/7/18,10:16,42-16.37N,142-09.16E,118,18.133,31.6582
618,2023/7/18,10:17,42-16.20N,142-09.58E,118,18.08,31.6519
619,2023/7/18,10:18,42-16.03N,142-09.99E,118,18.097,31.6734
620,2023/7/18,10:19,42-15.85N,142-10.42E,118,18.198,31.6662
621,2023/7/18,10:20,42-15.68N,142-10.84E,118,18.036,31.6566
622,2023/7/18,10:21,42-15.51N,142-11.26E,118,18.195,31.6741
623,2023/7/18,10:22,42-15.34N,142-11.70E,118,18.068,31.6914
624,2023/7/18,10:23,42-15.18N,142-12.11E,118,18.112,31.7284
625,2023/7/18,10:24,42-15.00N,142-12.54E,118,18.271,31.7593
626,2023/7/18,10:25,42-14.83N,142-12.97E,118,18.364,31.7451
627,2023/7/18,10:26,42-14.66N,142-13.39E,118,18.62,31.7492
628,2023/7/18,10:27,42-14.48N,142-13.83E,118,18.194,31.7505
629,2023/7/18,10:28,42-14.29N,142-14.29E,118,18.155,31.7832
630,2023/7/18,10:29,42-14.12N,142-14.72E,118,17.965,31.842
631,2023/7/18,10:30,42-13.97N,142-15.09E,118,18.083,31.8589
632,2023/7/18,10:31,42-13.80N,142-15.51E,118,18.47,31.8708
633,2023/7/18,10:32,42-13.61N,142-16.00E,118,18.626,31.8553
634,2023/7/18,10:33,42-13.44N,142-16.42E,118,18.85,31.8591
635,2023/7/18,10:34,42-13.26N,142-16.84E,119,18.781,31.8569
636,2023/7/18,10:35,42-13.10N,142-17.20E,119,18.803,31.8539
637,2023/7/18,10:36,42-12.92N,142-17.63E,119,18.739,31.864
638,2023/7/18,10:37,42-12.75N,142-18.05E,119,18.709,31.8638
639,2023/7/18,10:38,42-12.57N,142-18.47E,119,18.688,31.8457
640,2023/7/18,10:39,42-12.40N,142-18.88E,119,18.513,31.8419
641,2023/7/18,10:40,42-12.21N,142-19.31E,119,18.333,31.8311
642,2023/7/18,10:41,42-12.03N,142-19.73E,119,18.27,31.8138
643,2023/7/18,10:42,42-11.86N,142-20.15E,119,18.393,31.8033
644,2023/7/18,10:43,42-11.68N,142-20.57E,119,18.358,31.7898
645,2023/7/18,10:44,42-11.50N,142-21.00E,119,18.217,31.7803
646,2023/7/18,10:45,42-11.32N,142-21.42E,119,18.289,31.7674
647,2023/7/18,10:46,42-11.12N,142-21.89E,119,18.369,31.7488
648,2023/7/18,10:47,42-10.93N,142-22.32E,119,18.401,31.7327
649,2023/7/18,10:48,42-10.79N,142-22.67E,119,18.446,31.7382
650,2023/7/18,10:49,42-10.61N,142-23.10E,119,18.434,31.7457
651,2023/7/18,10:50,42-10.43N,142-23.52E,120,18.304,31.7526
652,2023/7/18,10:51,42-10.25N,142-23.93E,120,18.044,31.7672
653,2023/7/18,10:52,42-10.06N,142-24.37E,120,17.841,31.7595
654,2023/7/18,10:53,42-09.89N,142-24.76E,120,17.817,31.7409
655,2023/7/18,10:54,42-09.71N,142-25.19E,120,17.655,31.7061
656,2023/7/18,10:55,42-09.53N,142-25.61E,120,17.566,31.6476
657,2023/7/18,10:56,42-09.35N,142-26.02E,120,17.544,31.6175
658,2023/7/18,10:57,42-09.16N,142-26.45E,120,17.543,31.6074
659,2023/7/18,10:58,42-08.99N,142-26.85E,120,17.508,31.5775
660,2023/7/18,10:59,42-08.81N,142-27.27E,120,17.518,31.5708
661,2023/7/18,11:00,42-08.63N,142-27.70E,120,17.723,31.5798
662,2023/7/18,11:01,42-08.45N,142-28.11E,120,17.673,31.587
663,2023/7/18,11:02,42-08.27N,142-28.53E,120,17.064,31.6111
664,2023/7/18,11:03,42-08.09N,142-28.95E,119,16.329,31.697
665,2023/7/18,11:04,42-07.91N,142-29.37E,119,16.403,31.8075
666,2023/7/18,11:05,42-07.73N,142-29.80E,119,17.13,31.844
667,2023/7/18,11:06,42-07.56N,142-30.21E,119,17.282,31.8107
668,2023/7/18,11:07,42-07.38N,142-30.64E,119,17.409,31.7235
669,2023/7/18,11:08,42-07.21N,142-31.05E,119,17.569,31.7102
670,2023/7/18,11:09,42-07.03N,142-31.47E,119,17.525,31.7026
671,2023/7/18,11:10,42-06.85N,142-31.90E,119,17.429,31.6805
672,2023/7/18,11:11,42-06.68N,142-32.31E,119,17.438,31.7122
673,2023/7/18,11:12,42-06.51N,142-32.73E,119,17.331,31.7289
674,2023/7/18,11:13,42-06.34N,142-33.14E,119,17.37,31.7358
675,2023/7/18,11:14,42-06.16N,142-33.56E,119,17.566,31.7195
676,2023/7/18,11:15,42-05.98N,142-33.98E,119,17.796,31.6963
677,2023/7/18,11:16,42-05.82N,142-34.38E,119,17.821,31.69
678,2023/7/18,11:17,42-05.64N,142-34.80E,119,17.853,31.682
679,2023/7/18,11:18,42-05.46N,142-35.23E,119,17.84,31.7127
680,2023/7/18,11:19,42-05.30N,142-35.62E,119,17.871,31.7303
681,2023/7/18,11:20,42-05.12N,142-36.04E,119,17.905,31.7617
682,2023/7/18,11:21,42-04.95N,142-36.45E,119,17.879,31.7799
683,2023/7/18,11:22,42-04.78N,142-36.86E,119,17.811,31.8218
684,2023/7/18,11:23,42-04.60N,142-37.28E,119,17.85,31.8487
685,2023/7/18,11:24,42-04.44N,142-37.68E,119,17.911,31.8758
686,2023/7/18,11:25,42-04.27N,142-38.09E,119,17.953,31.916
687,2023/7/18,11:26,42-04.10N,142-38.50E,119,18.02,31.9567
688,2023/7/18,11:27,42-03.93N,142-38.91E,119,17.837,31.9791
689,2023/7/18,11:28,42-03.76N,142-39.32E,119,17.929,31.9983
690,2023/7/18,11:29,42-03.58N,142-39.72E,122,18.026,32.0068
691,2023/7/18,11:30,42-03.39N,142-40.12E,122,18.01,31.9995
692,2023/7/18,11:31,42-03.19N,142-40.52E,122,18.052,32.0002
693,2023/7/18,11:32,42-03.01N,142-40.90E,123,18.173,31.9946
694,2023/7/18,11:33,42-02.82N,142-41.29E,122,18.264,32.0037
695,2023/7/18,11:34,42-02.63N,142-41.68E,122,18.36,31.9963
696,2023/7/18,11:35,42-02.44N,142-42.09E,122,18.42,31.9905
697,2023/7/18,11:36,42-02.26N,142-42.47E,122,18.373,31.9886
698,2023/7/18,11:37,42-02.06N,142-42.86E,124,18.331,31.9782
699,2023/7/18,11:38,42-01.86N,142-43.25E,125,18.351,31.9552
700,2023/7/18,11:39,42-01.65N,142-43.65E,125,18.363,31.953
701,2023/7/18,11:40,42-01.45N,142-44.01E,125,18.361,31.9462
702,2023/7/18,11:41,42-01.25N,142-44.39E,125,18.369,31.9523
703,2023/7/18,11:42,42-01.05N,142-44.77E,125,18.243,31.9484
704,2023/7/18,11:43,42-00.84N,142-45.16E,125,18.257,31.948
705,2023/7/18,11:44,42-00.64N,142-45.53E,125,18.205,31.9222
706,2023/7/18,11:45,42-00.44N,142-45.92E,125,18.119,31.9005
707,2023/7/18,11:46,42-00.23N,142-46.31E,125,18.23,31.8919
708,2023/7/18,11:47,42-00.04N,142-46.67E,125,18.289,31.8691
709,2023/7/18,11:48,41-59.84N,142-47.06E,125,18.395,31.8547
710,2023/7/18,11:49,41-59.64N,142-47.44E,125,18.373,31.8488
711,2023/7/18,11:50,41-59.44N,142-47.82E,125,18.622,31.8354
712,2023/7/18,11:51,41-59.24N,142-48.20E,125,18.683,31.8208
713,2023/7/18,11:52,41-59.04N,142-48.58E,125,18.791,31.8021
714,2023/7/18,11:53,41-58.84N,142-48.96E,125,18.754,31.8144
715,2023/7/18,11:54,41-58.64N,142-49.33E,125,18.261,31.8586
716,2023/7/18,11:55,41-58.44N,142-49.72E,125,18.382,31.9164
717,2023/7/18,11:56,41-58.25N,142-50.09E,124,18.649,31.9595
718,2023/7/18,11:57,41-58.05N,142-50.46E,125,18.503,31.9743
719,2023/7/18,11:58,41-57.86N,142-50.84E,124,18.128,31.9727
720,2023/7/18,11:59,41-57.66N,142-51.21E,125,17.927,32.011
721,2023/7/18,12:00,41-57.46N,142-51.60E,125,17.776,32.0074
722,2023/7/18,12:01,41-57.27N,142-51.96E,125,17.414,31.9584
723,2023/7/18,12:02,41-57.08N,142-52.34E,124,17.629,31.8723
724,2023/7/18,12:03,41-56.89N,142-52.74E,122,17.804,31.7988
725,2023/7/18,12:04,41-56.72N,142-53.12E,121,17.929,31.6838
726,2023/7/18,12:05,41-56.54N,142-53.52E,120,17.68,31.608
727,2023/7/18,12:06,41-56.36N,142-53.92E,121,17.927,31.5271
728,2023/7/18,12:07,41-56.19N,142-54.29E,121,18.045,31.4775
729,2023/7/18,12:08,41-56.00N,142-54.69E,121,17.958,31.482
730,2023/7/18,12:09,41-55.83N,142-55.07E,121,17.979,31.5382
731,2023/7/18,12:10,41-55.65N,142-55.46E,121,17.966,31.5591
732,2023/7/18,12:11,41-55.46N,142-55.86E,121,17.93,31.5768
733,2023/7/18,12:12,41-55.29N,142-56.23E,121,18.073,31.5929
734,2023/7/18,12:13,41-55.11N,142-56.62E,122,17.868,31.6073
735,2023/7/18,12:14,41-54.93N,142-57.01E,119,17.667,31.676
736,2023/7/18,12:15,41-54.80N,142-57.41E,113,17.331,31.7149
737,2023/7/18,12:16,41-54.69N,142-57.83E,107,17.269,31.7354
738,2023/7/18,12:17,41-54.59N,142-58.26E,106,17.706,31.7358
739,2023/7/18,12:18,41-54.50N,142-58.70E,106,17.876,31.7271
740,2023/7/18,12:19,41-54.40N,142-59.14E,106,18.014,31.7185
741,2023/7/18,12:20,41-54.30N,142-59.58E,106,18.133,31.7138
742,2023/7/18,12:21,41-54.20N,143-00.00E,107,18.191,31.7069
743,2023/7/18,12:22,41-54.10N,143-00.44E,107,18.238,31.6655
744,2023/7/18,12:23,41-54.00N,143-00.88E,106,18.215,31.5929
745,2023/7/18,12:24,41-53.91N,143-01.31E,106,18.141,31.4806
746,2023/7/18,12:25,41-53.80N,143-01.75E,107,18.007,31.419
747,2023/7/18,12:26,41-53.70N,143-02.18E,107,17.855,31.3473
748,2023/7/18,12:27,41-53.60N,143-02.63E,106,17.721,31.3954
749,2023/7/18,12:28,41-53.50N,143-03.06E,107,17.894,31.3951
750,2023/7/18,12:29,41-53.40N,143-03.49E,107,17.746,31.3443
751,2023/7/18,12:30,41-53.29N,143-03.93E,107,17.611,31.3263
752,2023/7/18,12:31,41-53.19N,143-04.38E,108,17.489,31.3151
753,2023/7/18,12:32,41-53.08N,143-04.81E,107,17.157,31.3256
754,2023/7/18,12:33,41-52.98N,143-05.25E,107,17.358,31.3526
755,2023/7/18,12:34,41-52.87N,143-05.67E,110,17.588,31.3517
756,2023/7/18,12:35,41-52.75N,143-06.11E,110,17.428,31.2726
757,2023/7/18,12:36,41-52.63N,143-06.53E,110,17.482,31.2174
758,2023/7/18,12:37,41-52.51N,143-06.97E,110,17.345,31.1942
759,2023/7/18,12:38,41-52.39N,143-07.41E,110,17.068,31.135
760,2023/7/18,12:39,41-52.27N,143-07.83E,110,16.767,31.1346
761,2023/7/18,12:40,41-52.15N,143-08.27E,109,16.423,31.168
762,2023/7/18,12:41,41-52.03N,143-08.72E,110,15.93,31.2283
763,2023/7/18,12:42,41-51.92N,143-09.13E,110,15.453,31.3131
764,2023/7/18,12:43,41-51.79N,143-09.57E,110,15.042,31.3943
765,2023/7/18,12:44,41-51.67N,143-10.01E,110,14.985,31.5122
766,2023/7/18,12:45,41-51.56N,143-10.41E,110,15.046,31.4569
767,2023/7/18,12:46,41-51.44N,143-10.83E,111,14.878,31.4322
768,2023/7/18,12:47,41-51.31N,143-11.25E,111,14.348,31.425
769,2023/7/18,12:48,41-51.18N,143-11.67E,112,13.987,31.4697
770,2023/7/18,12:49,41-51.06N,143-12.08E,112,14.296,31.6296
771,2023/7/18,12:50,41-50.93N,143-12.50E,112,14.928,31.6905
772,2023/7/18,12:51,41-50.80N,143-12.91E,112,14.933,31.674
773,2023/7/18,12:52,41-50.67N,143-13.32E,113,14.727,31.6597
774,2023/7/18,12:53,41-50.53N,143-13.75E,112,15.416,31.7104
775,2023/7/18,12:54,41-50.42N,143-14.16E,110,14.48,31.7226
776,2023/7/18,12:55,41-50.32N,143-14.59E,106,13.799,31.9075
777,2023/7/18,12:56,41-50.23N,143-15.03E,104,15.332,32.057
778,2023/7/18,12:57,41-50.16N,143-15.47E,100,15.232,32.0579
779,2023/7/18,12:58,41-50.13N,143-15.93E,94,15.088,32.0522
780,2023/7/18,12:59,41-50.12N,143-16.39E,89,14.996,32.097
781,2023/7/18,13:00,41-50.14N,143-16.82E,85,14.915,32.1121
782,2023/7/18,13:01,41-50.19N,143-17.28E,80,15.128,32.159
783,2023/7/18,13:02,41-50.25N,143-17.72E,77,16.154,32.1871
784,2023/7/18,13:03,41-50.35N,143-18.16E,72,15.792,32.1577
785,2023/7/18,13:04,41-50.47N,143-18.58E,67,14.861,32.1821
786,2023/7/18,13:05,41-50.61N,143-18.99E,64,15.772,32.2276
787,2023/7/18,13:06,41-50.77N,143-19.39E,61,16.848,32.2036
788,2023/7/18,13:07,41-50.94N,143-19.79E,59,16.736,32.2035
789,2023/7/18,13:08,41-51.12N,143-20.20E,60,17.034,32.1971
790,2023/7/18,13:09,41-51.29N,143-20.58E,59,16.842,32.2043
791,2023/7/18,13:10,41-51.47N,143-20.99E,59,16.162,32.2272
792,2023/7/18,13:11,41-51.64N,143-21.37E,59,16.452,32.2441
793,2023/7/18,13:12,41-51.81N,143-21.75E,58,16.439,32.2383
794,2023/7/18,13:13,41-51.98N,143-22.13E,59,16.975,32.2401
795,2023/7/18,13:14,41-52.14N,143-22.49E,59,16.294,32.2448
796,2023/7/18,13:15,41-52.31N,143-22.86E,58,16.578,32.2469
797,2023/7/18,13:16,41-52.49N,143-23.23E,55,16.715,32.2531
798,2023/7/18,13:17,41-52.68N,143-23.56E,53,16.994,32.2481
799,2023/7/18,13:18,41-52.87N,143-23.92E,54,17.293,32.2559
800,2023/7/18,13:19,41-53.06N,143-24.27E,53,17.612,32.2643
801,2023/7/18,13:20,41-53.24N,143-24.61E,54,17.716,32.2577
802,2023/7/18,13:21,41-53.47N,143-24.89E,36,17.493,32.2546
803,2023/7/18,13:22,41-53.73N,143-25.12E,33,16.724,32.285
804,2023/7/18,13:23,41-54.01N,143-25.35E,32,16.187,32.3219
805,2023/7/18,13:24,41-54.28N,143-25.59E,32,15.782,32.3258
806,2023/7/18,13:25,41-54.55N,143-25.80E,31,15.589,32.3379
807,2023/7/18,13:26,41-54.83N,143-26.03E,30,16.53,32.3407
808,2023/7/18,13:27,41-55.12N,143-26.26E,30,17.069,32.2764
809,2023/7/18,13:28,41-55.38N,143-26.46E,31,17.533,32.2579
810,2023/7/18,13:29,41-55.66N,143-26.69E,31,17.547,32.2583
811,2023/7/18,13:30,41-55.93N,143-26.91E,30,17.336,32.2641
812,2023/7/18,13:31,41-56.22N,143-27.12E,29,17.219,32.2761
813,2023/7/18,13:32,41-56.50N,143-27.33E,28,17.62,32.3003
814,2023/7/18,13:33,41-56.78N,143-27.53E,28,17.992,32.2986
815,2023/7/18,13:34,41-57.06N,143-27.74E,29,18.044,32.2946
816,2023/7/18,13:35,41-57.35N,143-27.95E,29,18.004,32.3116
817,2023/7/18,13:36,41-57.63N,143-28.15E,28,17.533,32.3141
818,2023/7/18,13:37,41-57.91N,143-28.36E,28,17.417,32.3211
819,2023/7/18,13:38,41-58.20N,143-28.57E,27,17.725,32.3085
820,2023/7/18,13:39,41-58.52N,143-28.80E,28,17.302,32.3031
821,2023/7/18,13:40,41-58.79N,143-28.99E,27,17.069,32.3018
822,2023/7/18,13:41,41-59.05N,143-29.18E,29,17.508,32.3091
823,2023/7/18,13:42,41-59.32N,143-29.39E,28,16.798,32.3079
824,2023/7/18,13:43,41-59.65N,143-29.62E,28,17.059,32.3248
825,2023/7/18,13:44,41-59.93N,143-29.82E,28,17.583,32.3316
826,2023/7/18,13:45,42-00.22N,143-30.03E,29,17.138,32.3203
827,2023/7/18,13:46,42-00.48N,143-30.22E,28,17.463,32.3409
828,2023/7/18,13:47,42-00.76N,143-30.42E,28,16.578,32.356
829,2023/7/18,13:48,42-01.05N,143-30.63E,28,16.006,32.3543
830,2023/7/18,13:49,42-01.34N,143-30.84E,28,16.636,32.3716
831,2023/7/18,13:50,42-01.64N,143-31.05E,27,16.345,32.3439
832,2023/7/18,13:51,42-01.94N,143-31.27E,28,16.466,32.3296
833,2023/7/18,13:52,42-02.23N,143-31.48E,27,16.21,32.3095
834,2023/7/18,13:53,42-02.53N,143-31.69E,27,16.069,32.3098
835,2023/7/18,13:54,42-02.83N,143-31.91E,27,16.053,32.2862
836,2023/7/18,13:55,42-03.17N,143-32.15E,28,16.36,32.2816
837,2023/7/18,13:56,42-03.45N,143-32.35E,27,16.012,32.2715
838,2023/7/18,13:57,42-03.75N,143-32.55E,26,15.817,32.282
839,2023/7/18,13:58,42-04.08N,143-32.77E,26,16.151,32.278
840,2023/7/18,13:59,42-04.38N,143-32.97E,27,15.62,32.2667
841,2023/7/18,14:00,42-04.65N,143-33.14E,25,15.527,32.2739
842,2023/7/18,14:01,42-04.97N,143-33.30E,19,15.134,32.2821
843,2023/7/18,14:02,42-05.29N,143-33.44E,17,15.439,32.3003
844,2023/7/18,14:03,42-05.62N,143-33.57E,17,15.607,32.2744
845,2023/7/18,14:04,42-05.94N,143-33.72E,18,14.945,32.2623
846,2023/7/18,14:05,42-06.25N,143-33.85E,17,14.801,32.2585
847,2023/7/18,14:06,42-06.58N,143-34.00E,18,15.35,32.281
848,2023/7/18,14:07,42-06.90N,143-34.14E,18,15.548,32.2603
849,2023/7/18,14:08,42-07.24N,143-34.29E,18,15.808,32.2592
850,2023/7/18,14:09,42-07.55N,143-34.43E,18,15.478,32.2314
851,2023/7/18,14:10,42-07.87N,143-34.58E,18,15.58,32.2179
852,2023/7/18,14:11,42-08.20N,143-34.73E,19,15.043,32.2015
853,2023/7/18,14:12,42-08.52N,143-34.87E,18,14.654,32.2375
854,2023/7/18,14:13,42-08.84N,143-35.02E,18,14.942,32.24
855,2023/7/18,14:14,42-09.16N,143-35.16E,18,15.29,32.2303
856,2023/7/18,14:15,42-09.49N,143-35.31E,19,15.518,32.2211
857,2023/7/18,14:16,42-09.82N,143-35.46E,18,15.451,32.1975
858,2023/7/18,14:17,42-10.14N,143-35.60E,19,15.356,32.2018
859,2023/7/18,14:18,42-10.47N,143-35.73E,14,15.207,32.221
860,2023/7/18,14:19,42-10.82N,143-35.84E,12,15.435,32.2121
861,2023/7/18,14:20,42-11.15N,143-35.93E,12,15.772,32.2075
862,2023/7/18,14:21,42-11.49N,143-36.04E,12,15.643,32.1921
863,2023/7/18,14:22,42-11.84N,143-36.14E,12,15.577,32.1726
864,2023/7/18,14:23,42-12.17N,143-36.24E,12,15.605,32.1609
865,2023/7/18,14:24,42-12.51N,143-36.34E,12,15.336,32.1581
866,2023/7/18,14:25,42-12.87N,143-36.44E,12,15.828,32.1427
867,2023/7/18,14:26,42-13.21N,143-36.54E,12,15.089,32.1451
868,2023/7/18,14:27,42-13.52N,143-36.64E,13,14.756,32.1564
869,2023/7/18,14:28,42-13.85N,143-36.78E,17,15.036,32.173
870,2023/7/18,14:29,42-14.18N,143-36.92E,18,14.949,32.1835
871,2023/7/18,14:30,42-14.50N,143-37.06E,17,14.636,32.2066
872,2023/7/18,14:31,42-14.87N,143-37.26E,22,15.108,32.2496
873,2023/7/18,14:32,42-15.15N,143-37.41E,22,14.985,32.2317
874,2023/7/18,14:33,42-15.46N,143-37.58E,23,14.965,32.2345
875,2023/7/18,14:34,42-15.77N,143-37.77E,25,15.153,32.2403
876,2023/7/18,14:35,42-16.10N,143-38.02E,29,15.478,32.2367
877,2023/7/18,14:36,42-16.38N,143-38.25E,31,15.238,32.1904
878,2023/7/18,14:37,42-16.66N,143-38.47E,29,14.374,32.1911
879,2023/7/18,14:38,42-16.96N,143-38.71E,31,15.046,32.2578
880,2023/7/18,14:39,42-17.25N,143-38.95E,30,14.001,32.2252
881,2023/7/18,14:40,42-17.56N,143-39.19E,30,13.909,32.2288
882,2023/7/18,14:41,42-17.85N,143-39.43E,31,14.11,32.2612
883,2023/7/18,14:42,42-18.15N,143-39.67E,30,14.026,32.2198
884,2023/7/18,14:43,42-18.44N,143-39.91E,30,13.776,32.2368
885,2023/7/18,14:44,42-18.74N,143-40.14E,30,14.728,32.2316
886,2023/7/18,14:45,42-19.04N,143-40.39E,32,14.712,32.1782
887,2023/7/18,14:46,42-19.34N,143-40.63E,30,14.745,32.154
888,2023/7/18,14:47,42-19.63N,143-40.86E,32,14.989,32.158
889,2023/7/18,14:48,42-19.93N,143-41.11E,32,14.42,32.1569
890,2023/7/18,14:49,42-20.22N,143-41.35E,31,14.258,32.1662
891,2023/7/18,14:50,42-20.52N,143-41.59E,31,14.611,32.2088
892,2023/7/18,14:51,42-20.82N,143-41.84E,31,14.707,32.1773
893,2023/7/18,14:52,42-21.11N,143-42.08E,31,14.411,32.1694
894,2023/7/18,14:53,42-21.41N,143-42.33E,30,14.191,32.1691
895,2023/7/18,14:54,42-21.71N,143-42.57E,31,14.765,32.1777
896,2023/7/18,14:55,42-21.99N,143-42.81E,32,14.568,32.1734
897,2023/7/18,14:56,42-22.29N,143-43.07E,33,14.531,32.1637
898,2023/7/18,14:57,42-22.58N,143-43.32E,32,14.52,32.1995
899,2023/7/18,14:58,42-22.87N,143-43.57E,33,14.499,32.2078
900,2023/7/18,14:59,42-23.16N,143-43.83E,32,14.484,32.2
901,2023/7/18,15:00,42-23.47N,143-44.09E,32,14.68,32.2024
902,2023/7/18,15:01,42-23.75N,143-44.33E,32,14.893,32.195
903,2023/7/18,15:02,42-24.03N,143-44.59E,33,14.845,32.1754
904,2023/7/18,15:03,42-24.32N,143-44.84E,33,14.945,32.1702
905,2023/7/18,15:04,42-24.62N,143-45.10E,32,15.21,32.1784
906,2023/7/18,15:05,42-24.91N,143-45.35E,32,15.415,32.1673
907,2023/7/18,15:06,42-25.20N,143-45.60E,32,15.691,32.1767
908,2023/7/18,15:07,42-25.48N,143-45.85E,33,15.77,32.1799
909,2023/7/18,15:08,42-25.77N,143-46.11E,32,15.85,32.1938
910,2023/7/18,15:09,42-26.07N,143-46.36E,32,16.14,32.2962
911,2023/7/18,15:10,42-26.35N,143-46.61E,33,16.581,32.3692
912,2023/7/18,15:11,42-26.67N,143-46.91E,35,16.615,32.3911
913,2023/7/18,15:12,42-26.96N,143-47.18E,35,16.459,32.4379
914,2023/7/18,15:13,42-27.24N,143-47.46E,35,16.582,32.4964
915,2023/7/18,15:14,42-27.52N,143-47.73E,35,16.437,32.4728
916,2023/7/18,15:15,42-27.80N,143-48.00E,35,16.69,32.4522
917,2023/7/18,15:16,42-28.05N,143-48.24E,35,17.049,32.4213
918,2023/7/18,15:17,42-28.32N,143-48.50E,35,16.862,32.3572
919,2023/7/18,15:18,42-28.60N,143-48.77E,35,16.358,32.3342
920,2023/7/18,15:19,42-28.89N,143-49.05E,35,16.424,32.3675
921,2023/7/18,15:20,42-29.16N,143-49.30E,34,16.852,32.3777